I0ABU Sezze IT current weather conditions

sailwx.info

Wind from 188 at 0 knots gusting 3

Air temperature 9.4° C
Dewpoint 5.0° C

Last reported at 2020-Jan-27 07:50 UTC.
Time now 2020-Jan-27 08:28 UTC

Location: N 41°30' E 013°04'.
View on Google Maps.

See reports from other nearby stations

  
Tides and Currents Weather Stations Pressure Air Temp Water Temp Dewpoint Dewpoint Depression Visibility Wind Speed Wind Dir Waves Ship Positions
date/time (UTC)wind fromknots sea level pressurealtimeterstation pressurevisibilityair tempwater tempwave heightnotes
2020-Jan-27 08:05 188 1 gusting 2 10.0
2020-Jan-27 08:00 188 9.4
2020-Jan-27 07:50 188 0 gusting 3 9.4
2020-Jan-27 07:45 100 2 gusting 2 9.4
2020-Jan-27 07:40 046 1 gusting 1 9.4
2020-Jan-27 07:35 046 8.9
2020-Jan-27 07:30 046 8.9
2020-Jan-27 07:25 046 1 gusting 1 8.3
2020-Jan-27 07:20 046 8.3
2020-Jan-27 07:15 046 8.3
2020-Jan-27 07:10 046 0 gusting 1 8.3
2020-Jan-27 07:05 046 8.3
2020-Jan-27 07:00 046 8.3
2020-Jan-27 06:55 046 8.3
2020-Jan-27 06:50 046 1 gusting 3 8.3
2020-Jan-27 06:45 046 3 gusting 4 8.3
2020-Jan-27 06:40 005 1 gusting 2 7.8
2020-Jan-27 06:35 005 1 gusting 1 7.8
2020-Jan-27 06:30 005 0 gusting 2 8.3
2020-Jan-27 06:25 005 1 gusting 2 8.3
2020-Jan-27 06:20 005 1 gusting 2 8.3
2020-Jan-27 06:15 005 8.3
2020-Jan-27 06:10 005 8.3
2020-Jan-27 06:05 005 0 gusting 1 7.8
2020-Jan-27 06:00 005 7.8
2020-Jan-27 05:55 005 0 gusting 1 7.8
2020-Jan-27 05:50 005 0 gusting 0 7.8
2020-Jan-27 05:45 005 7.8
2020-Jan-27 05:40 005 7.8
2020-Jan-27 05:35 005 0 gusting 1 7.8
2020-Jan-27 05:30 005 1 gusting 2 7.8
2020-Jan-27 05:25 005 1 gusting 2 7.8
2020-Jan-27 05:20 108 7.8
2020-Jan-27 05:15 108 0 gusting 3 7.8
2020-Jan-27 05:10 059 7.8
2020-Jan-27 05:05 059 7.8
2020-Jan-27 05:00 059 7.8
2020-Jan-27 04:55 059 0 gusting 4 7.8
2020-Jan-27 04:50 024 1 gusting 3 7.8
2020-Jan-27 04:45 068 7.8
2020-Jan-27 04:40 7.8
2020-Jan-27 04:35 044 2 gusting 5 7.8
2020-Jan-27 04:30 015 2 gusting 4 7.8
2020-Jan-27 04:25 053 7.8
2020-Jan-27 04:20 053 7.8
2020-Jan-27 04:15 053 0 gusting 1 7.8
2020-Jan-27 04:10 053 7.8
2020-Jan-27 04:05 053 1 gusting 2 7.8
2020-Jan-27 04:00 053 1 gusting 2 7.8
2020-Jan-27 03:55 053 0 gusting 1 7.8
2020-Jan-27 03:50 053 0 gusting 1 7.8
2020-Jan-27 03:45 053 0 gusting 1 7.8
2020-Jan-27 03:40 053 0 gusting 2 7.8
2020-Jan-27 03:35 053 0 gusting 2 7.8
2020-Jan-27 03:30 053 7.8
2020-Jan-27 03:25 053 3 gusting 4 7.8
2020-Jan-27 03:20 055 3 gusting 6 8.3
2020-Jan-27 03:15 012 3 gusting 4 7.8
2020-Jan-27 03:10 038 2 gusting 6 7.8
2020-Jan-27 03:05 017 4 gusting 4 7.8
2020-Jan-27 03:00 039 3 gusting 4 7.8
2020-Jan-27 02:55 292 1 gusting 2 8.3
2020-Jan-27 02:50 288 8.3
2020-Jan-27 02:45 288 8.3
2020-Jan-27 02:40 261 8.3
2020-Jan-27 02:35 261 2 gusting 2 8.3
2020-Jan-27 02:30 261 1 gusting 1 8.3
2020-Jan-27 02:25 261 8.9
2020-Jan-27 02:20 261 8.9
2020-Jan-27 02:15 261 8.9
2020-Jan-27 02:10 235 1 gusting 4 8.9
2020-Jan-27 02:05 139 8.9
2020-Jan-27 02:00 126 0 gusting 2 8.9
2020-Jan-27 01:55 126 0 gusting 2 8.9
2020-Jan-27 01:50 126 2 gusting 3 8.3
2020-Jan-27 01:45 043 0 gusting 2 8.3
2020-Jan-27 01:40 043 0 gusting 1 8.3
2020-Jan-27 01:35 043 1 gusting 1 8.3
2020-Jan-27 01:30 043 1 gusting 1 8.3
2020-Jan-27 01:25 043 8.3
2020-Jan-27 01:20 043 8.3
2020-Jan-27 01:15 043 0 gusting 4 8.3
2020-Jan-27 01:10 042 2 gusting 4 8.3
2020-Jan-27 01:05 026 2 gusting 4 8.3
2020-Jan-27 01:00 031 2 gusting 2 8.3
2020-Jan-27 00:55 031 1 gusting 3 8.3
2020-Jan-27 00:50 032 1 gusting 4 8.3
2020-Jan-27 00:45 031 1 gusting 2 8.3
2020-Jan-27 00:40 328 1 gusting 2 8.3
2020-Jan-27 00:35 328 0 gusting 5 8.3
2020-Jan-27 00:30 333 4 gusting 5 7.8
2020-Jan-27 00:25 245 1 gusting 2 7.8
2020-Jan-27 00:20 245 7.8
2020-Jan-27 00:15 245 0 gusting 1 7.8
2020-Jan-27 00:10 245 1 gusting 1 8.3
2020-Jan-27 00:05 245 8.3
2020-Jan-27 00:00 245 0 gusting 1 8.3
2020-Jan-26 23:55 245 0 gusting 1 8.3
2020-Jan-26 23:50 245 0 gusting 1 8.9
2020-Jan-26 23:45 245 8.9
2020-Jan-26 23:40 144 8.9
2020-Jan-26 23:35 144 0 gusting 3 8.3
2020-Jan-26 23:30 020 0 gusting 1 8.3
2020-Jan-26 23:25 020 8.3
2020-Jan-26 23:20 020 8.3
2020-Jan-26 23:15 020 8.3
2020-Jan-26 23:10 020 8.3
2020-Jan-26 23:05 020 8.3
2020-Jan-26 23:00 020 8.3
2020-Jan-26 22:55 020 7.8
2020-Jan-26 22:50 020 1 gusting 3 7.8
2020-Jan-26 22:45 020 7.8
2020-Jan-26 22:40 020 2 gusting 2 7.8
2020-Jan-26 22:35 020 2 gusting 6 7.8
2020-Jan-26 22:30 016 4 gusting 5 7.8
2020-Jan-26 22:25 036 2 gusting 6 7.8
2020-Jan-26 22:20 024 4 gusting 5 7.8
2020-Jan-26 22:15 027 4 gusting 5 7.8
2020-Jan-26 22:10 032 3 gusting 5 7.8
2020-Jan-26 22:05 028 2 gusting 4 7.8
2020-Jan-26 22:00 047 3 gusting 4 7.8
2020-Jan-26 21:55 017 2 gusting 2 7.8
2020-Jan-26 21:50 017 2 gusting 3 7.8
2020-Jan-26 21:45 017 2 gusting 4 7.2
2020-Jan-26 21:40 017 3 gusting 3 7.2
2020-Jan-26 21:35 017 3 gusting 4 7.2
2020-Jan-26 21:30 017 2 gusting 6 7.2
2020-Jan-26 21:25 018 6 gusting 6 7.2
2020-Jan-26 21:20 022 4 gusting 6 7.2
2020-Jan-26 21:15 028 4 gusting 6 7.2
2020-Jan-26 21:10 028 4 gusting 6 7.2
2020-Jan-26 21:05 018 3 gusting 6 7.8
2020-Jan-26 21:00 016 4 gusting 6 7.8
2020-Jan-26 20:55 024 3 gusting 4 7.8
2020-Jan-26 20:50 024 3 gusting 4 7.8
2020-Jan-26 20:45 024 3 gusting 4 7.8
2020-Jan-26 20:40 026 3 gusting 4 7.8
2020-Jan-26 20:35 028 4 gusting 4 7.8
2020-Jan-26 20:30 049 4 gusting 5 7.8
2020-Jan-26 20:25 047 2 gusting 3 7.8
2020-Jan-26 20:20 046 1 gusting 3 7.8
2020-Jan-26 20:15 046 3 gusting 3 7.8
2020-Jan-26 20:10 046 1 gusting 2 8.3
2020-Jan-26 20:05 046 1 gusting 1 8.3
2020-Jan-26 20:00 046 8.3
2020-Jan-26 19:55 046 2 gusting 4 8.3
2020-Jan-26 19:50 050 2 gusting 3 8.3
2020-Jan-26 19:45 050 2 gusting 3 8.3
2020-Jan-26 19:40 050 2 gusting 4 8.3
2020-Jan-26 19:35 043 2 gusting 5 8.3
2020-Jan-26 19:30 048 3 gusting 4 8.3
2020-Jan-26 19:25 048 3 gusting 4 8.3
2020-Jan-26 19:20 048 3 gusting 4 8.3
2020-Jan-26 19:15 034 2 gusting 3 8.3
2020-Jan-26 19:10 030 2 gusting 3 8.3
2020-Jan-26 19:05 028 2 gusting 4 8.3
2020-Jan-26 19:00 033 3 gusting 4 8.3
2020-Jan-26 18:55 034 3 gusting 4 8.9
2020-Jan-26 18:50 005 2 gusting 6 8.9
2020-Jan-26 18:45 010 1 gusting 4 8.9
2020-Jan-26 18:40 344 0 gusting 2 8.9
2020-Jan-26 18:35 329 0 gusting 2 8.3
2020-Jan-26 18:30 329 1 gusting 2 8.9
2020-Jan-26 18:25 229 0 gusting 1 8.9
2020-Jan-26 18:20 229 8.9
2020-Jan-26 18:15 229 8.9
2020-Jan-26 18:10 229 8.9
2020-Jan-26 18:05 229 9.4
2020-Jan-26 18:00 229 9.4
2020-Jan-26 17:55 229 9.4
2020-Jan-26 17:50 229 9.4
2020-Jan-26 17:45 261 1 gusting 4 9.4
2020-Jan-26 17:40 238 1 gusting 4 9.4
2020-Jan-26 17:35 066 0 gusting 1 9.4
2020-Jan-26 17:30 066 9.4
2020-Jan-26 17:25 005 9.4
2020-Jan-26 17:20 005 9.4
2020-Jan-26 17:15 005 2 gusting 3 9.4
2020-Jan-26 17:10 169 0 gusting 1 10.0
2020-Jan-26 17:05 169 10.0
2020-Jan-26 17:00 169 0 gusting 3 10.0
2020-Jan-26 16:55 169 1 gusting 3 10.0
2020-Jan-26 16:50 215 1 gusting 3 10.6
2020-Jan-26 16:45 178 1 gusting 3 10.6
2020-Jan-26 16:40 240 2 gusting 3 10.6
2020-Jan-26 16:35 257 1 gusting 2 10.6
2020-Jan-26 16:30 257 11.1
2020-Jan-26 16:25 257 0 gusting 2 11.1
2020-Jan-26 16:20 257 0 gusting 1 11.1
2020-Jan-26 16:15 257 11.1
2020-Jan-26 16:10 257 11.7
2020-Jan-26 16:05 257 11.7
2020-Jan-26 16:00 257 0 gusting 1 11.7
2020-Jan-26 15:55 257 11.7
2020-Jan-26 15:50 250 0 gusting 1 12.2
2020-Jan-26 15:45 250 0 gusting 2 12.2
2020-Jan-26 15:40 098 0 gusting 1 12.2
2020-Jan-26 15:35 097 12.2
2020-Jan-26 15:30 094 12.2
2020-Jan-26 15:25 094 11.7
2020-Jan-26 15:20 094 11.7
2020-Jan-26 15:15 094 0 gusting 2 11.7
2020-Jan-26 15:10 094 1 gusting 5 11.1
2020-Jan-26 15:05 043 2 gusting 6 11.1
2020-Jan-26 15:00 040 2 gusting 6 11.1
2020-Jan-26 14:55 022 2 gusting 6 11.7
2020-Jan-26 14:50 010 4 gusting 7 11.7
2020-Jan-26 14:45 078 6 gusting 6 11.7
2020-Jan-26 14:40 092 2 gusting 5 11.7
2020-Jan-26 14:35 022 1 gusting 7 12.2
2020-Jan-26 14:30 059 0 gusting 5 12.2
2020-Jan-26 14:25 025 3 gusting 6 11.7
2020-Jan-26 14:20 172 0 gusting 7 11.7
2020-Jan-26 14:15 092 3 gusting 9 11.7
2020-Jan-26 14:10 056 8 gusting 8 11.7
2020-Jan-26 14:05 344 0 gusting 9 11.7
2020-Jan-26 14:00 010 1 gusting 6 11.7
2020-Jan-26 13:55 059 5 gusting 7 11.7
2020-Jan-26 13:50 042 11.7
2020-Jan-26 13:45 350 0 gusting 10 11.7
2020-Jan-26 13:40 092 0 gusting 4 11.7
2020-Jan-26 13:35 234 0 gusting 5 11.7
2020-Jan-26 13:30 132 0 gusting 5 11.1
2020-Jan-26 13:25 040 5 gusting 6 11.1
2020-Jan-26 13:20 319 4 gusting 10 11.1
2020-Jan-26 13:15 143 3 gusting 6 11.1
2020-Jan-26 13:10 289 0 gusting 6 10.6
2020-Jan-26 13:05 042 3 gusting 8 10.6
2020-Jan-26 13:00 323 3 gusting 7 10.0
2020-Jan-26 12:55 099 3 gusting 11 10.0
2020-Jan-26 12:50 332 4 gusting 11 10.0
2020-Jan-26 12:45 324 5 gusting 6 10.0
2020-Jan-26 12:40 345 1 gusting 6 9.4
2020-Jan-26 12:35 325 3 gusting 7 9.4
2020-Jan-26 12:30 043 1 gusting 8 9.4
2020-Jan-26 12:25 342 1 gusting 6 9.4
2020-Jan-26 12:20 342 3 gusting 7 9.4
2020-Jan-26 12:15 355 2 gusting 6 9.4
2020-Jan-26 12:10 005 1 gusting 4 9.4
2020-Jan-26 12:05 070 8.9
2020-Jan-26 12:00 019 1 gusting 3 8.9
2020-Jan-26 11:55 048 8.9
2020-Jan-26 11:50 013 8.9
2020-Jan-26 11:45 034 1 gusting 3 8.9
2020-Jan-26 11:40 024 1 gusting 5 8.9
2020-Jan-26 11:35 045 3 gusting 3 8.9
2020-Jan-26 11:30 072 2 gusting 5 8.9
2020-Jan-26 11:25 073 0 gusting 4 8.9
2020-Jan-26 11:20 038 3 gusting 5 8.9
2020-Jan-26 11:15 049 0 gusting 4 8.9
2020-Jan-26 11:10 031 2 gusting 3 8.9
2020-Jan-26 11:05 049 1 gusting 3 8.9
2020-Jan-26 11:00 054 0 gusting 2 8.9
2020-Jan-26 10:55 038 8.9
2020-Jan-26 10:50 036 2 gusting 7 8.9
2020-Jan-26 10:45 040 2 gusting 6 8.9
2020-Jan-26 10:40 042 1 gusting 4 8.9
2020-Jan-26 10:35 089 0 gusting 5 8.9
2020-Jan-26 10:30 075 1 gusting 4 8.9
2020-Jan-26 10:25 070 3 gusting 4 8.9
2020-Jan-26 10:20 306 8.9
2020-Jan-26 10:15 059 2 gusting 4 8.9
2020-Jan-26 10:10 065 2 gusting 5 8.3
2020-Jan-26 10:05 057 2 gusting 4 8.3
2020-Jan-26 10:00 022 1 gusting 3 8.3
2020-Jan-26 09:55 038 1 gusting 4 8.3
2020-Jan-26 09:50 005 1 gusting 5 8.3
2020-Jan-26 09:45 030 3 gusting 4 8.3
2020-Jan-26 09:40 028 2 gusting 6 8.3
2020-Jan-26 09:35 015 2 gusting 6 8.3
2020-Jan-26 09:30 024 4 gusting 6 8.3
2020-Jan-26 09:25 025 3 gusting 4 8.9
2020-Jan-26 09:20 023 3 gusting 4 8.9
2020-Jan-26 09:15 019 2 gusting 4 8.9
2020-Jan-26 09:10 014 1 gusting 3 8.3
2020-Jan-26 09:05 027 2 gusting 4 8.3
2020-Jan-26 09:00 021 3 gusting 4 8.3
2020-Jan-26 08:55 028 2 gusting 3 8.3
2020-Jan-26 08:50 016 2 gusting 4 8.9
2020-Jan-26 08:45 005 4 gusting 7 8.9
2020-Jan-26 08:40 8.3
2020-Jan-26 08:35 030 4 gusting 6 8.3
2020-Jan-26 08:30 020 1 gusting 6 8.3
2020-Jan-26 08:25 010 6 gusting 6 8.3
2020-Jan-26 08:20 050 2 gusting 6 8.3
2020-Jan-26 08:15 005 2 gusting 7 8.9
2020-Jan-26 08:10 010 3 gusting 6 8.9
2020-Jan-26 08:05 022 5 gusting 6 8.9
2020-Jan-26 08:00 355 4 gusting 6 8.9
2020-Jan-26 07:55 355 4 gusting 8 8.9
2020-Jan-26 07:50 326 3 gusting 6 8.9
2020-Jan-26 07:45 037 2 gusting 6 8.9
2020-Jan-26 07:40 298 2 gusting 7 8.9
2020-Jan-26 07:35 247 3 gusting 6 8.9
2020-Jan-26 07:30 208 4 gusting 6 9.4
2020-Jan-26 07:25 155 9.4
2020-Jan-26 07:20 177 1 gusting 2 9.4
2020-Jan-26 07:15 038 9.4
2020-Jan-26 07:10 038 0 gusting 2 9.4
2020-Jan-26 07:05 038 1 gusting 3 9.4
2020-Jan-26 07:00 038 2 gusting 3 9.4
2020-Jan-26 06:55 038 1 gusting 3 9.4
2020-Jan-26 06:50 036 1 gusting 5 9.4
2020-Jan-26 06:45 011 3 gusting 4 8.9
2020-Jan-26 06:40 005 2 gusting 4 9.4
2020-Jan-26 06:35 032 2 gusting 4 9.4
2020-Jan-26 06:30 005 3 gusting 5 9.4
2020-Jan-26 06:25 034 2 gusting 3 9.4
2020-Jan-26 06:20 049 3 gusting 5 8.9
2020-Jan-26 06:15 029 4 gusting 5 8.9
2020-Jan-26 06:10 043 3 gusting 3 8.9
2020-Jan-26 06:05 043 1 gusting 4 8.9
2020-Jan-26 06:00 018 3 gusting 6 8.9
2020-Jan-26 05:55 013 4 gusting 4 8.9
2020-Jan-26 05:50 011 2 gusting 4 8.9
2020-Jan-26 05:45 014 1 gusting 3 8.9
2020-Jan-26 05:40 355 3 gusting 6 8.9
2020-Jan-26 05:35 017 3 gusting 5 8.9
2020-Jan-26 05:30 005 2 gusting 5 8.9
2020-Jan-26 05:25 035 3 gusting 3 8.9
2020-Jan-26 05:20 028 0 gusting 5 8.9
2020-Jan-26 05:15 024 2 gusting 7 8.9
2020-Jan-26 05:10 005 3 gusting 6 8.9
2020-Jan-26 05:05 8.9
2020-Jan-26 05:00 015 2 gusting 4 8.9
2020-Jan-26 04:55 355 1 gusting 6 8.9
2020-Jan-26 04:50 351 1 gusting 6 9.4
2020-Jan-26 04:45 355 2 gusting 4 9.4
2020-Jan-26 04:40 013 1 gusting 3 10.0
2020-Jan-26 04:35 015 3 gusting 8 10.0
2020-Jan-26 04:30 053 4 gusting 6 10.0
2020-Jan-26 04:25 086 3 gusting 6 10.0
2020-Jan-26 04:20 034 2 gusting 3 10.0
2020-Jan-26 04:15 082 1 gusting 2 10.0
2020-Jan-26 04:10 051 0 gusting 2 10.0
2020-Jan-26 04:05 059 1 gusting 3 10.0
2020-Jan-26 04:00 051 2 gusting 5 10.0
2020-Jan-26 03:55 048 3 gusting 4 10.0
2020-Jan-26 03:50 055 2 gusting 6 10.0
2020-Jan-26 03:45 046 4 gusting 5 10.0
2020-Jan-26 03:40 055 2 gusting 6 10.0
2020-Jan-26 03:35 052 2 gusting 5 10.0
2020-Jan-26 03:30 9.4
2020-Jan-26 03:25 020 3 gusting 4 9.4
2020-Jan-26 03:20 036 2 gusting 5 9.4
2020-Jan-26 03:15 037 4 gusting 4 8.9
2020-Jan-26 03:10 005 3 gusting 6 8.9
2020-Jan-26 03:05 336 6 gusting 7 8.9
2020-Jan-26 03:00 005 6 gusting 6 9.4
2020-Jan-26 02:55 355 3 gusting 4 9.4
2020-Jan-26 02:50 015 9.4
2020-Jan-26 02:45 026 1 gusting 4 9.4
2020-Jan-26 02:40 013 3 gusting 4 9.4
2020-Jan-26 02:35 050 4 gusting 5 9.4
2020-Jan-26 02:30 355 1 gusting 4 9.4
2020-Jan-26 02:25 005 1 gusting 5 9.4
2020-Jan-26 02:20 044 3 gusting 5 9.4
2020-Jan-26 02:15 042 2 gusting 4 9.4
2020-Jan-26 02:10 069 2 gusting 4 8.9
2020-Jan-26 02:05 014 2 gusting 4 8.9
2020-Jan-26 02:00 028 2 gusting 4 8.9
2020-Jan-26 01:55 015 3 gusting 4 8.9
2020-Jan-26 01:50 020 2 gusting 5 9.4
2020-Jan-26 01:45 026 3 gusting 4 9.4
2020-Jan-26 01:40 047 3 gusting 4 9.4
2020-Jan-26 01:35 022 2 gusting 3 9.4
2020-Jan-26 01:30 022 2 gusting 3 9.4
2020-Jan-26 01:25 021 2 gusting 4 9.4
2020-Jan-26 01:20 025 2 gusting 4 9.4
2020-Jan-26 01:15 026 1 gusting 3 9.4
2020-Jan-26 01:10 017 2 gusting 4 9.4
2020-Jan-26 01:05 015 3 gusting 4 9.4
2020-Jan-26 01:00 005 1 gusting 4 10.0
2020-Jan-26 00:55 046 3 gusting 5 10.0
2020-Jan-26 00:50 046 3 gusting 5 10.0
2020-Jan-26 00:45 043 3 gusting 6 10.0
2020-Jan-26 00:40 051 4 gusting 6 10.0
2020-Jan-26 00:35 040 3 gusting 6 10.0
2020-Jan-26 00:30 017 4 gusting 6 9.4
2020-Jan-26 00:25 036 2 gusting 4 10.0
2020-Jan-26 00:20 022 1 gusting 4 10.0
2020-Jan-26 00:15 042 2 gusting 5 10.0
2020-Jan-26 00:10 034 1 gusting 5 10.0
2020-Jan-26 00:05 017 3 gusting 4 10.0
2020-Jan-26 00:00 068 1 gusting 5 10.0
2020-Jan-25 23:55 091 0 gusting 5 10.6
2020-Jan-25 23:50 053 4 gusting 4 10.6
2020-Jan-25 23:45 090 2 gusting 4 10.6
2020-Jan-25 23:40 059 1 gusting 3 10.6
2020-Jan-25 23:35 061 1 gusting 5 10.6
2020-Jan-25 23:30 023 1 gusting 5 10.6
2020-Jan-25 23:25 028 4 gusting 5 10.6
2020-Jan-25 23:20 051 2 gusting 6 10.6
2020-Jan-25 23:15 037 1 gusting 4 10.6
2020-Jan-25 23:10 054 1 gusting 3 10.6
2020-Jan-25 23:05 005 0 gusting 4 10.6
2020-Jan-25 23:00 061 3 gusting 4 10.6
2020-Jan-25 22:55 051 0 gusting 5 10.6
2020-Jan-25 22:50 086 0 gusting 3 10.6
2020-Jan-25 22:45 059 2 gusting 5 10.6
2020-Jan-25 22:40 055 1 gusting 2 10.6
2020-Jan-25 22:35 055 10.6
2020-Jan-25 22:30 088 10.6
2020-Jan-25 22:25 063 0 gusting 3 10.6
2020-Jan-25 22:20 081 3 gusting 3 10.6
2020-Jan-25 22:15 067 0 gusting 3 10.6
2020-Jan-25 22:10 053 2 gusting 4 10.6
2020-Jan-25 22:05 076 2 gusting 3 10.6
2020-Jan-25 22:00 060 1 gusting 4 10.6
2020-Jan-25 21:55 057 0 gusting 4 10.6
2020-Jan-25 21:50 044 1 gusting 3 10.6
2020-Jan-25 21:45 079 1 gusting 5 10.6
2020-Jan-25 21:40 081 1 gusting 3 10.6
2020-Jan-25 21:35 039 3 gusting 5 10.6
2020-Jan-25 21:30 059 1 gusting 3 10.6
2020-Jan-25 21:25 092 2 gusting 7 10.6
2020-Jan-25 21:20 058 0 gusting 3 10.6
2020-Jan-25 21:15 052 2 gusting 4 10.6
2020-Jan-25 21:10 050 3 gusting 5 10.6
2020-Jan-25 21:05 045 2 gusting 6 10.6
2020-Jan-25 21:00 082 3 gusting 6 10.6
2020-Jan-25 20:55 052 0 gusting 5 10.6
2020-Jan-25 20:50 097 10.0
2020-Jan-25 20:45 086 1 gusting 3 10.0
2020-Jan-25 20:40 036 0 gusting 2 10.0
2020-Jan-25 20:35 342 1 gusting 3 10.6
2020-Jan-25 20:30 024 0 gusting 2 10.6
2020-Jan-25 20:25 117 1 gusting 3 10.6
2020-Jan-25 20:20 049 2 gusting 3 10.6
2020-Jan-25 20:15 086 1 gusting 6 10.6
2020-Jan-25 20:10 057 1 gusting 5 10.6
2020-Jan-25 20:05 057 2 gusting 4 10.6
2020-Jan-25 20:00 066 1 gusting 2 10.6
2020-Jan-25 19:55 046 3 gusting 4 10.0
2020-Jan-25 19:50 046 0 gusting 4 10.0
2020-Jan-25 19:45 056 4 gusting 4 10.0
2020-Jan-25 19:40 009 0 gusting 2 10.0
2020-Jan-25 19:35 005 1 gusting 4 10.0
2020-Jan-25 19:30 005 1 gusting 6 10.0
2020-Jan-25 19:25 346 4 gusting 5 10.0
2020-Jan-25 19:20 10.0
2020-Jan-25 19:15 10.0
2020-Jan-25 19:10 033 2 gusting 4 10.0
2020-Jan-25 19:05 011 6 gusting 6 10.6
2020-Jan-25 19:00 049 2 gusting 5 10.0
2020-Jan-25 18:55 033 2 gusting 3 10.0
2020-Jan-25 18:50 053 1 gusting 3 10.0
2020-Jan-25 18:45 041 1 gusting 4 10.0
2020-Jan-25 18:40 042 2 gusting 3 10.0
2020-Jan-25 18:35 020 1 gusting 3 10.0
2020-Jan-25 18:30 018 2 gusting 4 10.0
2020-Jan-25 18:25 005 3 gusting 4 10.0
2020-Jan-25 18:20 005 1 gusting 4 10.0
2020-Jan-25 18:15 036 1 gusting 3 10.0
2020-Jan-25 18:10 046 2 gusting 4 10.0
2020-Jan-25 18:05 020 2 gusting 3 10.0
2020-Jan-25 18:00 046 1 gusting 3 10.0
2020-Jan-25 17:55 046 2 gusting 3 10.0
2020-Jan-25 17:50 032 2 gusting 3 10.0
2020-Jan-25 17:45 011 1 gusting 4 10.0
2020-Jan-25 17:40 011 2 gusting 4 10.0
2020-Jan-25 17:35 012 1 gusting 3 10.6
2020-Jan-25 17:30 012 1 gusting 3 10.6
2020-Jan-25 17:25 012 2 gusting 4 10.6
2020-Jan-25 17:20 019 3 gusting 4 10.6
2020-Jan-25 17:15 041 1 gusting 3 10.6
2020-Jan-25 17:10 041 1 gusting 3 11.1
2020-Jan-25 17:05 041 2 gusting 3 11.1
2020-Jan-25 17:00 041 2 gusting 3 11.1
2020-Jan-25 16:55 041 1 gusting 2 11.1
2020-Jan-25 16:50 041 2 gusting 3 11.1
2020-Jan-25 16:45 051 1 gusting 3 11.1
2020-Jan-25 16:40 044 3 gusting 3 11.1
2020-Jan-25 16:35 039 1 gusting 4 11.1
2020-Jan-25 16:30 044 1 gusting 4 11.1
2020-Jan-25 16:25 031 2 gusting 3 11.1
2020-Jan-25 16:20 064 0 gusting 4 11.1
2020-Jan-25 16:15 059 1 gusting 4 11.7
2020-Jan-25 16:10 045 2 gusting 3 11.7
2020-Jan-25 16:05 087 1 gusting 4 11.7
2020-Jan-25 16:00 059 2 gusting 5 11.7
2020-Jan-25 15:55 067 3 gusting 4 11.7
2020-Jan-25 15:50 042 0 gusting 1 11.7
2020-Jan-25 15:45 042 0 gusting 2 12.2
2020-Jan-25 15:40 042 1 gusting 2 12.2
2020-Jan-25 15:35 042 0 gusting 3 12.2
2020-Jan-25 15:30 077 1 gusting 3 12.2
2020-Jan-25 15:25 046 3 gusting 4 12.2
2020-Jan-25 15:20 044 3 gusting 4 12.2
2020-Jan-25 15:15 044 3 gusting 3 12.2
2020-Jan-25 15:10 060 1 gusting 4 12.2
2020-Jan-25 15:05 037 1 gusting 3 12.2
2020-Jan-25 15:00 049 2 gusting 4 12.8
2020-Jan-25 14:55 044 1 gusting 3 12.8
2020-Jan-25 14:50 12.8
2020-Jan-25 14:45 028 12.8
2020-Jan-25 14:40 024 0 gusting 4 12.2
2020-Jan-25 14:35 005 1 gusting 5 12.8
2020-Jan-25 14:30 023 1 gusting 3 12.8
2020-Jan-25 14:25 017 0 gusting 2 12.8
2020-Jan-25 14:20 017 0 gusting 2 12.8
2020-Jan-25 14:15 160 0 gusting 1 12.8
2020-Jan-25 14:10 160 12.8
2020-Jan-25 14:05 160 12.2
2020-Jan-25 14:00 160 1 gusting 3 12.2
2020-Jan-25 13:55 160 12.2
2020-Jan-25 13:50 160 12.2
2020-Jan-25 13:45 145 1 gusting 3 12.2
2020-Jan-25 13:40 088 12.2
2020-Jan-25 13:35 055 2 gusting 4 12.2
2020-Jan-25 13:30 094 1 gusting 3 12.2
2020-Jan-25 13:25 029 1 gusting 4 12.2
2020-Jan-25 13:20 015 0 gusting 3 12.2
2020-Jan-25 13:15 12.2
2020-Jan-25 13:10 12.2
2020-Jan-25 13:05 014 1 gusting 4 12.2
2020-Jan-25 13:00 026 1 gusting 2 12.2
2020-Jan-25 12:55 046 0 gusting 7 12.2
2020-Jan-25 12:50 032 12.2
2020-Jan-25 12:45 351 1 gusting 4 11.7
2020-Jan-25 12:40 340 4 gusting 6 11.7
2020-Jan-25 12:35 051 2 gusting 6 11.7
2020-Jan-25 12:30 032 3 gusting 5 12.2
2020-Jan-25 12:25 005 4 gusting 4 11.7
2020-Jan-25 12:20 061 3 gusting 6 11.7
2020-Jan-25 12:15 039 2 gusting 7 12.2
2020-Jan-25 12:10 019 4 gusting 5 12.2
2020-Jan-25 12:05 038 0 gusting 4 12.2
2020-Jan-25 12:00 053 1 gusting 4 12.2
2020-Jan-25 11:55 026 0 gusting 3 11.7
2020-Jan-25 11:50 011 2 gusting 5 11.7
2020-Jan-25 11:45 050 2 gusting 4 11.1
2020-Jan-25 11:40 032 1 gusting 4 11.1
2020-Jan-25 11:35 101 11.1
2020-Jan-25 11:30 111 1 gusting 5 11.1
2020-Jan-25 11:25 192 2 gusting 4 11.1
2020-Jan-25 11:20 148 1 gusting 6 11.1
2020-Jan-25 11:15 128 2 gusting 7 11.1
2020-Jan-25 11:10 119 3 gusting 7 10.6
2020-Jan-25 11:05 136 4 gusting 5 10.6
2020-Jan-25 11:00 132 2 gusting 5 10.6
2020-Jan-25 10:55 161 1 gusting 6 10.6
2020-Jan-25 10:50 155 3 gusting 8 10.6
2020-Jan-25 10:45 165 6 gusting 8 10.6
2020-Jan-25 10:40 161 5 gusting 10 10.6
2020-Jan-25 10:35 176 6 gusting 9 10.6
2020-Jan-25 10:30 112 5 gusting 6 10.6
2020-Jan-25 10:25 088 3 gusting 9 10.6
2020-Jan-25 10:20 146 6 gusting 9 10.6
2020-Jan-25 10:15 159 4 gusting 13 10.6
2020-Jan-25 10:10 108 5 gusting 13 11.1
2020-Jan-25 10:05 239 2 gusting 5 11.1
2020-Jan-25 10:00 133 3 gusting 8 11.1
2020-Jan-25 09:55 100 1 gusting 6 10.6
2020-Jan-25 09:50 089 2 gusting 6 10.6
2020-Jan-25 09:45 030 0 gusting 3 10.6
2020-Jan-25 09:40 066 1 gusting 6 10.6
2020-Jan-25 09:35 050 3 gusting 5 10.6
2020-Jan-25 09:30 101 0 gusting 4 10.6
2020-Jan-25 09:25 065 5 gusting 8 10.6
2020-Jan-25 09:20 076 3 gusting 10 10.6
2020-Jan-25 09:15 110 5 gusting 8 10.6
2020-Jan-25 09:10 075 7 gusting 7 10.6
2020-Jan-25 09:05 023 2 gusting 9 10.6
2020-Jan-25 09:00 055 6 gusting 8 10.6
2020-Jan-25 08:55 067 4 gusting 6 11.1
2020-Jan-25 08:50 142 4 gusting 8 11.1
2020-Jan-25 08:45 119 1 gusting 9 11.1
2020-Jan-25 08:40 106 3 gusting 7 11.1
2020-Jan-25 08:35 134 4 gusting 7 10.6
2020-Jan-25 08:30 080 4 gusting 8 10.6
2020-Jan-25 08:25 090 3 gusting 8 10.6
2020-Jan-25 08:20 111 2 gusting 7 10.6
2020-Jan-25 08:15 063 4 gusting 6 10.6
2020-Jan-25 08:10 028 2 gusting 6 10.6
2020-Jan-25 08:05 086 2 gusting 8 10.0
2020-Jan-25 08:00 086 2 gusting 7 10.0